SCP
0 0 0 0 0 0 0 0 0 0 0 0 0 0 0 0 0 0 0 0 0 0
0 0 0 0 0 0 0 0 0 0 0 0 0 0 0 0 0 0 0 0 0 0
0 0 0 0 0 0 0 0 0 0 0 0 0 0 0 0 0 0 0 0 0 0
0 0 0 0 0 0 0 0 0 0 0 0 0 0 0 0 0 0 0 0 0 0
0 0 0 0 0 0 0 0 0 0 0 0 0 0 0 0 0 0 0 0 0 0
0 0 0 0 0 0 0 0 0 0 0 0 0 0 0 0 0 0 0 0 0 0
0 0 0 0 0 0 0 0 0 0 0 0 0 0 0 0 0 0 0 0 0 0
0 0 0 0 0 0 0 0 0 0 0 0 0 0 0 0 0 0 0 0 0 0
0 0 0 0 0 0 0 0 0 0 0 0 0 0 0 0 0 0 0 0 0 0
0 0 0 0 0 0 0 0 0 0 0 0 0 0 0 0 0 0 0 0 0 0
0 0 0 0 0 0 0 0 0 0 0 0 0 0 0 0 0 0 0 0 0 0
0 0 0 0 0 0 0 0 0 0 0 0 0 0 0 0 0 0 0 0 0 0
0 0 0 0 0 0 0 0 0 0 0 0 0 0 0 0 0 0 0 0 0 0
0 0 0 0 0 0 0 0 0 0 0 0 0 0 0 0 0 0 0 0 0 0
Wind_Speed_500mb
6 9 13 16 16 16 17 18 18 20 22 24 27 29 32 35 35 37 40 44 46 50
7 7 12 15 15 17 18 20 22 24 26 28 31 34 36 40 40 42 45 48 50 54
12 12 15 18 18 18 20 23 26 27 30 32 34 35 39 43 46 48 50 55 59 62
13 18 22 23 20 18 21 25 29 30 33 35 37 38 41 44 48 53 57 60 62 64
17 24 28 24 20 21 23 26 32 37 40 42 44 47 51 54 56 59 62 68 63 59
18 24 23 19 20 22 24 29 36 42 45 47 49 52 55 58 57 54 49 47 46 51
15 15 12 12 14 19 27 34 40 42 43 44 47 48 47 44 40 42 43 42 44 46
8 13 16 17 21 28 34 38 39 41 40 39 40 40 40 38 37 42 43 44 48 55
14 21 23 24 26 32 33 33 33 33 36 36 31 31 34 38 43 49 52 58 61 62
22 23 23 28 32 31 29 30 30 28 27 27 28 32 39 45 51 56 55 55 58 59
21 24 28 31 29 28 28 25 25 27 26 28 33 39 44 50 47 48 51 54 57 58
22 25 27 27 25 21 21 25 22 22 25 31 38 45 47 47 53 56 58 57 57 56
24 24 20 19 17 21 22 21 20 25 31 37 41 44 48 54 59 61 63 58 57 56
19 15 16 15 20 18 18 19 23 30 35 38 42 45 50 54 58 59 54 46 46 48
Wind_Direction_500mb
334 6 3 354 345 338 334 331 324 321 322 322 315 311 308 306 306 306 304 302 300 299
319 340 350 343 348 348 340 337 330 326 323 320 316 315 312 308 309 307 305 302 302 300
311 302 309 322 344 332 331 331 327 326 321 320 318 316 312 310 312 309 307 304 302 299
306 307 301 309 330 323 321 322 321 322 320 319 319 318 313 311 310 308 307 305 305 307
321 314 313 304 310 314 317 323 320 316 314 314 314 314 311 309 308 306 307 304 301 309
339 324 316 303 301 308 311 316 318 319 318 316 314 311 311 311 310 312 322 321 315 313
355 352 336 325 321 317 318 320 320 320 319 320 320 321 328 335 335 332 331 326 321 318
351 354 353 340 330 325 323 321 322 324 328 333 336 335 335 337 337 334 333 329 325 321
324 329 328 331 339 337 331 331 337 339 338 338 344 348 344 342 341 338 334 329 325 323
322 329 332 334 336 339 342 346 349 354 359 356 355 350 345 341 336 334 336 337 334 331
331 330 330 335 343 347 355 9 5 358 1 358 352 343 336 333 337 341 343 342 341 339
332 334 338 343 355 10 11 2 3 6 3 354 346 341 341 347 351 352 350 350 348 343
335 338 353 12 12 5 7 13 17 5 355 351 349 349 351 352 352 352 351 352 357 2
343 10 18 18 2 23 27 20 5 354 353 355 357 356 353 353 354 353 353 354 355 355
Wind_Speed_850mb
6 9 13 16 16 16 17 18 18 20 22 24 27 29 32 35 35 37 40 44 46 50
7 7 12 15 15 17 18 20 22 24 26 28 31 34 36 40 40 42 45 48 50 54
12 12 15 18 18 18 20 23 26 27 30 32 34 35 39 43 46 48 50 55 59 62
13 18 22 23 20 18 21 25 29 30 33 35 37 38 41 44 48 53 57 60 62 64
17 24 28 24 20 21 23 26 32 37 40 42 44 47 51 54 56 59 62 68 63 59
18 24 23 19 20 22 24 29 36 42 45 47 49 52 55 58 57 54 49 47 46 51
15 15 12 12 14 19 27 34 40 42 43 44 47 48 47 44 40 42 43 42 44 46
8 13 16 17 21 28 34 38 39 41 40 39 40 40 40 38 37 42 43 44 48 55
14 21 23 24 26 32 33 33 33 33 36 36 31 31 34 38 43 49 52 58 61 62
22 23 23 28 32 31 29 30 30 28 27 27 28 32 39 45 51 56 55 55 58 59
21 24 28 31 29 28 28 25 25 27 26 28 33 39 44 50 47 48 51 54 57 58
22 25 27 27 25 21 21 25 22 22 25 31 38 45 47 47 53 56 58 57 57 56
24 24 20 19 17 21 22 21 20 25 31 37 41 44 48 54 59 61 63 58 57 56
19 15 16 15 20 18 18 19 23 30 35 38 42 45 50 54 58 59 54 46 46 48
Wind_Direction_850mb
334 6 3 354 345 338 334 331 324 321 322 322 315 311 308 306 306 306 304 302 300 299
319 340 350 343 348 348 340 337 330 326 323 320 316 315 312 308 309 307 305 302 302 300
311 302 309 322 344 332 331 331 327 326 321 320 318 316 312 310 312 309 307 304 302 299
306 307 301 309 330 323 321 322 321 322 320 319 319 318 313 311 310 308 307 305 305 307
321 314 313 304 310 314 317 323 320 316 314 314 314 314 311 309 308 306 307 304 301 309
339 324 316 303 301 308 311 316 318 319 318 316 314 311 311 311 310 312 322 321 315 313
355 352 336 325 321 317 318 320 320 320 319 320 320 321 328 335 335 332 331 326 321 318
351 354 353 340 330 325 323 321 322 324 328 333 336 335 335 337 337 334 333 329 325 321
324 329 328 331 339 337 331 331 337 339 338 338 344 348 344 342 341 338 334 329 325 323
322 329 332 334 336 339 342 346 349 354 359 356 355 350 345 341 336 334 336 337 334 331
331 330 330 335 343 347 355 9 5 358 1 358 352 343 336 333 337 341 343 342 341 339
332 334 338 343 355 10 11 2 3 6 3 354 346 341 341 347 351 352 350 350 348 343
335 338 353 12 12 5 7 13 17 5 355 351 349 349 351 352 352 352 351 352 357 2
343 10 18 18 2 23 27 20 5 354 353 355 357 356 353 353 354 353 353 354 355 355